026  
ASUS44 KFWD 182215  
RWRFWD  
NORTH TEXAS HOURLY WEATHER ROUNDUP  
NATIONAL WEATHER SERVICE FORT WORTH TX  
500 PM CDT SAT AUG 18 2018  
 
NOTE: "FAIR" INDICATES FEW OR NO CLOUDS BELOW 12,000 FEET WITH NO  
SIGNIFICANT WEATHER AND/OR S TO VISIBILITY
.  
 
TXZ118-119-182300-  
DALLAS/FORT WORTH METROPLEX  
 
CITY SKY/WX TMP DP RH WIND PRES REMARKS
 
DFW AIRPORT FAIR 100 68 35 S9 29.85F HX 105  
DALLAS LOVE FAIR 101 69 35 SW7 29.85F HX 107  
FTW MEACHAM FAIR 99 69 37 W5 29.85F HX 105  
DAL-EXECUTIVE FAIR 101 67 32 S5 29.86F HX 106  
FTW-ALLIANCE PTSUNNY 99 68 36 W6 29.86F HX 104  
FTW-NAS-JRB PTSUNNY 96 69 41 NW6 29.86F HX 102  
FTW-SPINKS MOSUNNY 100 64 30 CALM 29.89F HX 103  
ARLINGTON FAIR 101 70 36 MISG 29.86F HX 108  
GRAND PRAIRIE SUNNY 99 63 30 S5 29.87F HX 100  
ADDISON SUNNY 99 66 34 CALM 29.87F HX 102  
MESQUITE SUNNY 99 68 36 SE6 29.88F HX 104  
LANCASTER FAIR 98 70 39 SE3 29.88F HX 105  

 
 
TXZ091>094-102>105-117-120-121-131>134-182300-  
NORTH CENTRAL TEXAS  
 
CITY SKY/WX TMP DP RH WIND PRES REMARKS
 
SHRMAN/DENISON FAIR 94 74 51 N8 29.90F HX 104  
GAINESVILLE FAIR 92 71 49 NE6 29.92F HX 98  
BOWIE FAIR 87 73 61 N13G20 29.92S HX 94  
BRIDGEPORT RAIN 77 69 75 NW9G16 29.93F  
DECATUR PTSUNNY 87 69 56 NE12 29.92R HX 91  
DENTON FAIR 99 70 38 CALM 29.86F HX 106  
MCKINNEY FAIR 99 68 36 NW9 29.86F HX 104  
BONHAM FAIR 95 72 46 N9 29.88F HX 103  
GREENVILLE FAIR 100 64 30 S3 29.88F HX 103  
ROCKWALL FAIR 99 70 39 CALM 29.87F HX 106  
TERRELL FAIR 97 68 38 SW7 29.88F HX 102  
WAXAHACHIE FAIR 99 68 37 SW6 29.89F HX 104  
CLEBURNE FAIR 99 66 34 S6 29.90F HX 102  
GRANBURY FAIR 102 63 27 SE5 29.88F HX 105  

 
 
TXZ083>090-098>101-113>116-127>130-139>142-154-155-182300-  
WESTERN NORTH TEXAS  
 
CITY SKY/WX TMP DP RH WIND PRES REMARKS
 
WICHITA FALLS FAIR 84 68 58 NE9 29.92F  
WF-KICKAPOO FAIR 87 68 53 NE15 29.94F HX 91  
VERNON FAIR 91 70 50 NE6 29.94F HX 96  
ABILENE FAIR 97 66 36 SE7 29.94F HX 100  
ABILENE-DYESS MOSUNNY 95 60 30 SW14 N/A HX 95  
GRAHAM FAIR 99 65 33 N6 29.87F HX 102  
BRECKENRIDGE FAIR 95 62 33 N6 29.90F HX 96  
CISCO FAIR 97 -20 1 S10 29.94F  
EASTLAND FAIR 97 65 34 SW8 29.92F HX 100  
RANGER FAIR 96 64 34 S7 29.92F HX 98  
MINERAL WELLS TSTM 84 69 60 N14G24 29.89S  
STEPHENVILLE PTSUNNY 99 61 28 CALM 29.94F HX 99  
COMANCHE FAIR 99 63 30 SE12G20 29.92F HX 101  
BROWNWOOD LGT RAIN 97 59 28 SE7 29.92F HX 96  
COLEMAN FAIR 96 60 30 SE5 29.94F HX 95  
BRADY FAIR 95 59 30 VRB5G12 29.95F HX 94  

 
 
TXZ143>147-156>162-174-175-182300-  
CENTRAL TEXAS  
 
CITY SKY/WX TMP DP RH WIND PRES REMARKS
 
WACO FAIR 102 62 26 S9 29.87F HX 104  
WACO-TSTC MOSUNNY 100 59 25 S5 29.88F HX 100  
WACO-MCGREGOR PTSUNNY 101 64 29 SE12 29.88F HX 104  
CORSICANA FAIR 98 67 36 VRB5 29.90F HX 102  
MEXIA FAIR 98 64 32 N6 29.89F HX 100  
HEARNE FAIR 99 65 32 CALM 29.90F HX 102  
CAMERON FAIR 99 66 33 CALM 29.89F HX 103  
TEMPLE FAIR 99 65 32 CALM 29.90F HX 102  
KILLEEN FAIR 98 60 28 E3 29.89F HX 98  
KILLEEN-SKYLRK FAIR 100 66 32 S7 29.90F HX 104  
FORT HOOD FAIR 99 61 28 SE10 29.86F HX 99  
GATESVILLE FAIR 100 61 27 CALM 29.91F HX 101  
HAMILTON FAIR 97 60 28 S3 29.93F HX 97  
LAMPASAS FAIR 97 61 30 E8 29.91F HX 97  

 
 
TXZ095>097-106>112-122>126-135>138-148>153-164>167-182300-  
EAST TEXAS  
 
CITY SKY/WX TMP DP RH WIND PRES REMARKS
 
PARIS FAIR 95 76 53 N9 29.89F HX 108  
SULPHUR SPRNGS FAIR 99 67 35 CALM 29.89F HX 103  
MOUNT PLEASANT FAIR 99 66 33 S7 29.88F HX 102  
GILMER FAIR 98 66 34 CALM 29.87F HX 101  
MINEOLA FAIR 97 68 38 SW5 29.88F HX 101  
TYLER FAIR 99 63 30 VRB6 29.89F HX 101  
LONGVIEW FAIR 99 69 37 W7 29.87F HX 105  
MARSHALL FAIR 96 65 35 S7 29.90F HX 98  
ATHENS FAIR 97 68 38 SW3 29.88F HX 101  
PALESTINE FAIR 97 65 35 NE3 29.90F HX 99  
JACKSONVILLE FAIR 99 63 30 S5 29.92F HX 101  
HENDERSON FAIR 98 69 38 W6 29.90F HX 103  
CENTER FAIR 94 71 46 S8 29.90F HX 101  
NACOGDOCHES N/A 98 72 42 SE12 N/A HX 107  
LUFKIN FAIR 95 73 48 S7 29.90F HX 104  

 
 
SUPPLEMENTAL OBSERVATIONS (NWS FORT WORTH AREA)  
 
CITY SKY/WX TMP DP RH WIND PRES REMARKS
 
DENISON DAM N/A 93 72 49 N6 N/A HX 100  
CADDO GRASSLND N/A 97 72 44 N3 N/A HX 105  
LBJ GRASSLAND N/A 84 66 54 NE3G14 N/A  
POSSUM KINGDOM N/A 97 64 34 SW7G18 N/A HX 99  
GRANBURY N/A 102 64 29 SE7 N/A HX 105  
COMANCHE N/A 99 59 26 S7 N/A HX 98  
MCGREGOR N/A 102 59 24 SE9 N/A HX 102  
TEMPLE N/A 102 64 29 SE3G13 N/A HX 105  
LAKE LIMESTONE N/A 100 63 28 SE6G14 N/A HX 102  
ATHENS N/A 100 66 32 SW2 N/A HX 104  
PALESTINE N/A 100 66 32 SE3 N/A HX 104  

 
 
SUPPLEMENTAL OBSERVATIONS (NWS NORMAN AREA)  
 
CITY SKY/WX TMP DP RH WIND PRES REMARKS
 
GOODLETT N/A 90 65 43 SE7 29.96F HX 92  
ODELL N/A 89 70 52 N8 29.96F HX 94  
CROWELL N/A 92 71 50 NE8 29.95F HX 99  
KNOX CITY N/A 93 67 42 E5 29.95F HX 97  
SEYMOUR N/A 92 67 43 N6 29.93F HX 96  
MILLERS CREEK N/A 93 66 40 NE5 N/A HX 96  

 
 
SUPPLEMENTAL OBSERVATIONS (NWS SAN ANGELO AREA)  
 
CITY SKY/WX TMP DP RH WIND PRES REMARKS
 
WEINERT N/A 93 69 44 N2 29.94F HX 98  
HASKELL N/A 92 63 37 NW5 29.95F HX 92  
THROCKMORTON N/A 95 70 44 NW3 29.92F HX 101  
STAMFORD N/A 95 68 41 W3 29.94F HX 99  
HAMBY N/A 99 64 32 SW7G17 N/A HX 101  
IVIE RESERVOIR N/A 99 59 26 S7G15 N/A HX 98  
COLORADO BEND N/A 99 57 25 SE9 N/A HX 97  

 
 
SUPPLEMENTAL OBSERVATIONS (NWS SHREVEPORT AREA)  
 
CITY SKY/WX TMP DP RH WIND PRES REMARKS
 
CADDO LAKE N/A 100 72 39 CALM N/A HX 109  
LUFKIN N/A 97 73 46 MISG N/A HX 107  
N SABINE NF N/A 97 72 44 MISG N/A HX 105  

 
 
SUPPLEMENTAL OBSERVATIONS ARE A COLLECTION OF AUTOMATED INSTRUMENTS  
THAT ARE MAINTAINED BY A VARIETY OF FEDERAL AND STATE AGENCIES.  
CERTAIN ELEMENTS...SUCH AS HUMIDITY VALUES AND SUSTAINED WIND  
SPEEDS...MAY BE APPROXIMATED.  
 
 
 
CLICK HERE TO GO TO PREVIOUS BULLETINS.

The Nexlab TX Page Main Text Page